Campo, CA

8:17 AM PST on December 06, 2019 (GMT -0800)
Campo

Weather History for KCZZ - August, 2019

Change the Weather History Date:

Sunday, August 4, 2019

  Actual Average Record
Temperature  
Mean Temperature 80 °F 74 °F  
Max Temperature 99 °F 95 °F 107 °F (1998)
Min Temperature 60 °F 54 °F 36 °F (1962)
Degree Days  
Heating Degree Days 0 0  
Month to date heating degree days 0 0  
Since 1 June heating degree days 42 63  
Since 1 July heating degree days 6 7  
Cooling Degree Days 15 9  
Month to date cooling degree days 53 36  
Year to date cooling degree days 381 408  
Since 1 June cooling degree days 379 378  
Growing Degree Days 30 (Base 50)    
Moisture  
Dew Point 45 °F    
Average Humidity 36    
Maximum Humidity 63    
Minimum Humidity 9    
Precipitation  
Precipitation 0.00 in 0.02 in 0.63 in (1955)
Month to date precipitation 0.00 0.08  
Year to date precipitation 12.82 10.55  
Sea Level Pressure  
Sea Level Pressure 29.87 in    
Wind  
Wind Speed 8 mph (South)    
Max Wind Speed 18 mph    
Max Gust Speed 23 mph    
T = Trace of Precipitation, MM = Missing Value Source: NWS Daily Summary

Daily Weather History Graph

Daily Weather History Graph

Search for Another Location

Airport or City:

Astronomy

Aug. 04, 2019 Rise Set
Actual Time 6:01 AM PDT 7:41 PM PDT
Civil Twilight 5:35 AM PDT 8:08 PM PDT
Nautical Twilight 5:03 AM PDT 8:40 PM PDT
Astronomical Twilight 4:29 AM PDT 9:13 PM PDT
Moon 10:00 AM PDT (8/4) 10:37 PM PDT (8/4)
Length of Visible Light 14h 32m
Length of Day
13h 39m
Waxing Crescent, 19% of the Moon is Illuminated
Aug 4
Waxing Crescent
Aug 7
First Quarter
Aug 15
Full
Aug 23
Last Quarter
Aug 30
New

Hourly Weather History & Observations

Time (PDT) Temp. Dew Point Humidity Pressure Visibility Wind Dir Wind Speed Gust Speed Precip Events Conditions
12:52 AM 66.0 °F 48.0 °F 52% 29.87 in - ENE 6.9 mph - N/A   Unknown
1:52 AM 64.0 °F 48.0 °F 56% 29.86 in - ENE 6.9 mph - N/A   Unknown
2:52 AM 64.0 °F 48.0 °F 56% 29.85 in - NE 3.5 mph - N/A   Unknown
3:52 AM 62.1 °F 45.0 °F 53% 29.86 in - ENE 4.6 mph - N/A   Unknown
4:52 AM 62.1 °F 45.0 °F 53% 29.87 in - NE 4.6 mph - N/A   Unknown
5:52 AM 61.0 °F 43.0 °F 52% 29.89 in - NE 4.6 mph - N/A   Unknown
6:52 AM 64.0 °F 43.0 °F 46% 29.90 in - ENE 6.9 mph - N/A   Unknown
7:52 AM 73.9 °F 43.0 °F 33% 29.89 in - Calm Calm - N/A   Unknown
8:52 AM 84.9 °F 43.0 °F 23% 29.88 in - Calm Calm - N/A   Unknown
9:52 AM 91.0 °F 33.1 °F 13% 29.88 in - Variable 3.5 mph - N/A   Unknown
10:52 AM 95.0 °F 26.1 °F 9% 29.87 in - SW 13.8 mph - N/A   Unknown
11:52 AM 96.1 °F 35.1 °F 12% 29.86 in - SSW 16.1 mph - N/A   Unknown
12:52 PM 98.1 °F 42.1 °F 15% 29.86 in - SW 11.5 mph - N/A   Unknown
1:52 PM 98.1 °F 37.0 °F 12% 29.85 in - SW 17.3 mph - N/A   Unknown
2:52 PM 98.1 °F 39.9 °F 13% 29.84 in - WSW 12.7 mph - N/A   Unknown
3:52 PM 97.0 °F 44.1 °F 16% 29.84 in - SW 13.8 mph 19.6 mph N/A   Unknown
4:52 PM 96.1 °F 45.0 °F 17% 29.83 in - WSW 16.1 mph - N/A   Unknown
5:52 PM 93.0 °F 48.9 °F 22% 29.83 in - SW 11.5 mph - N/A   Unknown
6:52 PM 84.9 °F 52.0 °F 32% 29.85 in - SW 13.8 mph - N/A   Unknown
7:52 PM 78.1 °F 54.0 °F 43% 29.87 in - SSW 10.4 mph - N/A   Unknown
8:52 PM 75.0 °F 55.0 °F 50% 29.88 in - Calm Calm - N/A   Unknown
9:52 PM 70.0 °F 54.0 °F 57% 29.89 in - Calm Calm - N/A   Unknown
10:52 PM 66.9 °F 52.0 °F 59% 29.89 in - NE 4.6 mph - N/A   Unknown
11:52 PM 64.9 °F 51.1 °F 61% 29.90 in - ENE 4.6 mph - N/A   Unknown